GW6644 Weather Reports


time (UTC)temp
C
wind
direction
speed
KPH
gust
KPH
rain 1hr
cm
rain 24hr
cm
rain mn
cm
humidity
%
barometer
mb
20260509201947 31 53 0.0 0.0 0.00 0.00 0.00 46 1007.6
20260509201443 31 50 1.6 1.6 0.00 0.00 0.00 47 1007.8
20260509200940 31 67 1.6 3.2 0.00 0.00 0.00 45 1007.9
20260509200440 31 55 0.0 0.0 0.00 0.00 0.00 44 1007.9
20260509195937 31 67 3.2 3.2 0.00 0.00 0.00 44 1007.8
20260509195433 31 99 3.2 3.2 0.00 0.00 0.00 44 1007.7
20260509194932 31 136 3.2 8.0 0.00 0.00 0.00 46 1007.8
20260509194428 31 237 1.6 3.2 0.00 0.00 0.00 44 1008.1
20260509193926 31 17 3.2 3.2 0.00 0.00 0.00 45 1008.1
20260509193425 30 40 1.6 1.6 0.00 0.00 0.00 46 1008.0
20260509192921 30 43 4.8 4.8 0.00 0.00 0.00 46 1008.3
20260509192417 30 54 0.0 0.0 0.00 0.00 0.00 47 1008.3
20260509191913 30 48 1.6 1.6 0.00 0.00 0.00 49 1008.3
20260509191408 30 29 8.0 9.7 0.00 0.00 0.00 45 1008.2
20260509190905 30 60 1.6 1.6 0.00 0.00 0.00 48 1008.5
20260509190402 30 66 0.0 1.6 0.00 0.00 0.00 49 1008.1
20260509185900 29 52 0.0 0.0 0.00 0.00 0.00 50 1008.4
20260509185356 29 43 4.8 4.8 0.00 0.00 0.00 50 1008.4
20260509184853 30 74 1.6 1.6 0.00 0.00 0.00 49 1008.3
20260509184350 30 46 4.8 4.8 0.00 0.00 0.00 47 1008.4
20260509183847 31 45 1.6 1.6 0.00 0.00 0.00 46 1008.4
20260509183342 30 44 0.0 1.6 0.00 0.00 0.00 49 1008.8
20260509182838 30 66 0.0 1.6 0.00 0.00 0.00 50 1008.9
20260509182335 30 49 0.0 1.6 0.00 0.00 0.00 50 1008.7
20260509181832 29 41 3.2 3.2 0.00 0.00 0.00 50 1009.0
20260509181330 28 54 0.0 0.0 0.00 0.00 0.00 53 1008.9
20260509180827 30 54 1.6 1.6 0.00 0.00 0.00 50 1008.9
20260509180323 30 47 1.6 1.6 0.00 0.00 0.00 50 1008.8
20260509175820 30 57 0.0 1.6 0.00 0.00 0.00 51 1008.8
20260509175316 30 51 0.0 0.0 0.00 0.00 0.00 51 1009.0
20260509174812 29 52 1.6 3.2 0.00 0.00 0.00 53 1009.0
20260509174308 28 67 1.6 1.6 0.00 0.00 0.00 53 1009.0
20260509173804 29 54 1.6 1.6 0.00 0.00 0.00 52 1009.1
20260509173259 29 21 4.8 4.8 0.00 0.00 0.00 52 1009.1
20260509172755 28 57 0.0 0.0 0.00 0.00 0.00 54 1009.2
20260509172253 27 53 1.6 3.2 0.00 0.00 0.00 56 1009.2
20260509171748 28 53 0.0 1.6 0.00 0.00 0.00 54 1009.0
20260509171244 27 76 3.2 3.2 0.00 0.00 0.00 55 1009.0
20260509170741 28 61 4.8 4.8 0.00 0.00 0.00 55 1009.3
20260509170237 28 39 1.6 1.6 0.00 0.00 0.00 55 1009.4
20260509165736 27 41 6.4 8.0 0.00 0.00 0.00 55 1009.3
20260509165231 28 47 3.2 3.2 0.00 0.00 0.00 54 1009.5
20260509164727 27 73 3.2 3.2 0.00 0.00 0.00 56 1009.4
20260509164223 27 47 1.6 1.6 0.00 0.00 0.00 56 1009.4
20260509163721 27 67 1.6 1.6 0.00 0.00 0.00 56 1009.4
20260509163217 27 46 0.0 0.0 0.00 0.00 0.00 56 1009.4
20260509162715 27 59 1.6 3.2 0.00 0.00 0.00 55 1009.7
20260509162210 27 51 0.0 1.6 0.00 0.00 0.00 55 1009.7
20260509161706 27 57 0.0 1.6 0.00 0.00 0.00 56 1009.6
20260509161202 26 62 0.0 1.6 0.00 0.00 0.00 58 1009.7
20260509160657 26 32 3.2 3.2 0.00 0.00 0.00 57 1009.5
20260509160153 26 13 8.0 11.3 0.00 0.00 0.00 55 1009.5
20260509155649 27 61 0.0 0.0 0.00 0.00 0.00 59 1009.3
20260509155146 26 70 1.6 1.6 0.00 0.00 0.00 60 1009.3
20260509154641 26 64 4.8 4.8 0.00 0.00 0.00 59 1009.4
20260509154139 26 83 6.4 9.7 0.00 0.00 0.00 60 1009.0
20260509153636 25 59 1.6 3.2 0.00 0.00 0.00 62 1009.3
20260509153132 25 64 0.0 1.6 0.00 0.00 0.00 63 1009.2
20260509152628 25 26 1.6 1.6 0.00 0.00 0.00 64 1009.3
20260509152126 25 62 1.6 1.6 0.00 0.00 0.00 65 1009.3
20260509151622 25 357 3.2 4.8 0.00 0.00 0.00 67 1009.3
20260509151120 24 19 3.2 3.2 0.00 0.00 0.00 69 1009.3
20260509150617 24 51 3.2 4.8 0.00 0.00 0.00 68 1009.3
20260509150115 25 58 0.0 1.6 0.00 0.00 0.00 69 1009.7
20260509145611 25 40 3.2 3.2 0.00 0.00 0.00 70 1009.5
20260509145107 24 74 3.2 3.2 0.00 0.00 0.00 71 1009.4
20260509144604 23 53 0.0 1.6 0.00 0.00 0.00 72 1009.4
20260509144101 24 58 1.6 1.6 0.00 0.00 0.00 71 1009.6
20260509143558 23 75 0.0 1.6 0.00 0.00 0.00 73 1009.7
20260509143056 23 65 0.0 0.0 0.00 0.00 0.00 75 1009.5
20260509142556 24 61 1.6 1.6 0.00 0.00 0.00 73 1009.7
20260509142052 24 62 1.6 1.6 0.00 0.00 0.00 73 1009.7
20260509141548 23 66 3.2 4.8 0.00 0.00 0.00 75 1009.8
20260509141045 23 75 3.2 3.2 0.00 0.00 0.00 75 1009.6
20260509140542 23 64 0.0 1.6 0.00 0.00 0.00 76 1009.7
20260509140040 23 76 1.6 1.6 0.00 0.00 0.00 75 1009.9
20260509135537 23 65 0.0 1.6 0.00 0.00 0.00 76 1009.7
20260509135035 23 62 0.0 0.0 0.00 0.00 0.00 77 1009.5
20260509134532 22 67 1.6 1.6 0.00 0.00 0.00 77 1009.7
20260509134029 22 62 0.0 1.6 0.00 0.00 0.00 79 1009.8
20260509133526 22 79 0.0 0.0 0.00 0.00 0.00 80 1009.5
20260509133024 21 60 0.0 0.0 0.00 0.00 0.00 82 1009.6
20260509132522 21 64 0.0 1.6 0.00 0.00 0.00 83 1009.4
20260509132020 20 60 0.0 1.6 0.00 0.00 0.00 84 1009.5
20260509131515 20 68 0.0 0.0 0.00 0.00 0.00 84 1009.3
20260509131013 20 61 0.0 0.0 0.00 0.00 0.00 84 1009.3
20260509130508 20 77 1.6 1.6 0.00 0.00 0.00 84 1009.5
20260509130005 20 57 0.0 1.6 0.00 0.00 0.00 84 1009.4
20260509125501 20 59 0.0 1.6 0.00 0.00 0.00 84 1009.5
20260509124957 20 64 0.0 1.6 0.00 0.00 0.00 85 1009.3
20260509124455 20 54 0.0 1.6 0.00 0.00 0.00 85 1009.2
20260509123952 19 61 0.0 0.0 0.00 0.00 0.00 85 1009.3
20260509123449 19 61 0.0 0.0 0.00 0.00 0.00 85 1009.4
20260509122945 19 68 1.6 4.8 0.00 0.00 0.00 85 1009.4
20260509122442 19 57 0.0 1.6 0.00 0.00 0.00 85 1009.4
20260509121939 19 50 1.6 1.6 0.00 0.00 0.00 86 1009.5
20260509121435 18 38 4.8 4.8 0.00 0.00 0.00 86 1009.1
20260509120934 18 58 0.0 0.0 0.00 0.00 0.00 87 1009.2
20260509120432 18 60 0.0 0.0 0.00 0.00 0.00 88 1009.0
20260509115929 18 56 0.0 0.0 0.00 0.00 0.00 88 1009.0
20260509115426 18 57 0.0 0.0 0.00 0.00 0.00 88 1009.2
20260509114924 18 54 0.0 0.0 0.00 0.00 0.00 88 1009.1
20260509114422 18 59 0.0 0.0 0.00 0.00 0.00 88 1009.1
20260509113921 18 60 0.0 0.0 0.00 0.00 0.00 88 1008.7
20260509113418 18 60 0.0 0.0 0.00 0.00 0.00 88 1008.7
20260509112915 19 67 0.0 0.0 0.00 0.00 0.00 88 1008.5
20260509112412 19 61 0.0 0.0 0.00 0.00 0.00 87 1008.4
20260509111909 19 58 0.0 0.0 0.00 0.00 0.00 87 1008.2
20260509111406 19 54 0.0 1.6 0.00 0.00 0.00 87 1008.1
20260509110904 19 58 0.0 0.0 0.00 0.00 0.00 86 1008.2
20260509110359 19 57 1.6 1.6 0.00 0.00 0.00 86 1008.5
20260509105858 20 62 0.0 0.0 0.00 0.00 0.00 85 1008.1
20260509105356 20 62 0.0 0.0 0.00 0.00 0.00 84 1008.1
20260509104853 20 58 0.0 0.0 0.00 0.00 0.00 84 1008.0
20260509104349 20 58 0.0 0.0 0.00 0.00 0.00 83 1008.1
20260509103847 20 62 0.0 0.0 0.00 0.00 0.00 83 1008.1
20260509103344 20 60 0.0 0.0 0.00 0.00 0.00 83 1008.0
20260509102843 20 57 0.0 0.0 0.00 0.00 0.00 82 1008.0
20260509102339 20 62 0.0 0.0 0.00 0.00 0.00 81 1008.1
20260509101835 20 63 0.0 0.0 0.00 0.00 0.00 81 1008.0
20260509101331 20 63 0.0 0.0 0.00 0.00 0.00 79 1007.9
20260509100830 20 60 0.0 0.0 0.00 0.00 0.00 78 1007.9
20260509100326 20 60 0.0 0.0 0.00 0.00 0.00 78 1008.1
20260509095823 20 59 0.0 0.0 0.00 0.00 0.00 77 1007.9
20260509095320 21 59 0.0 0.0 0.00 0.00 0.00 76 1008.1
20260509094817 21 61 0.0 0.0 0.00 0.00 0.00 75 1008.0
20260509094314 21 55 0.0 0.0 0.00 0.00 0.00 74 1007.8
20260509093812 21 46 1.6 1.6 0.00 0.00 0.00 74 1007.5
20260509093309 21 48 1.6 1.6 0.00 0.00 0.00 72 1007.4
20260509092807 22 47 6.4 9.7 0.00 0.00 0.00 71 1006.8
20260509092306 22 25 8.0 12.9 0.00 0.00 0.00 68 1006.9
20260509091803 21 64 4.8 4.8 0.00 0.00 0.00 77 1006.6
20260509091259 21 50 8.0 11.3 0.00 0.00 0.00 82 1006.5
20260509090756 20 60 1.6 1.6 0.00 0.00 0.00 83 1005.9
20260509090253 20 68 14.5 17.7 0.00 0.00 0.00 84 1006.4
20260509085751 20 350 4.8 4.8 0.00 0.00 0.00 85 1005.3
20260509085248 20 313 3.2 4.8 0.00 0.00 0.00 84 1005.3
20260509084744 21 288 6.4 8.0 0.00 0.00 0.00 84 1005.3
20260509084241 20 314 4.8 4.8 0.00 0.00 0.00 84 1005.7
20260509083739 20 277 6.4 8.0 0.00 0.00 0.00 84 1005.5
20260509083236 20 297 4.8 8.0 0.00 0.00 0.00 84 1005.7
20260509082732 20 264 6.4 8.0 0.00 0.00 0.00 85 1005.8
20260509082229 20 332 4.8 4.8 0.00 0.00 0.00 85 1005.4
20260509081726 21 207 6.4 8.0 0.00 0.00 0.00 84 1005.5
20260509081223 21 234 4.8 4.8 0.00 0.00 0.00 81 1005.1
20260509080721 21 70 1.6 1.6 0.00 0.00 0.00 81 1005.4
20260509080219 21 35 0.0 1.6 0.00 0.00 0.00 81 1005.9
20260509075717 20 81 3.2 3.2 0.00 0.00 0.00 80 1006.2
20260509075214 20 75 1.6 1.6 0.00 0.00 0.00 83 1006.5
20260509074711 20 60 0.0 0.0 0.00 0.00 0.00 86 1006.9
20260509074208 20 63 0.0 0.0 0.00 0.00 0.00 87 1007.5
20260509073704 20 198 3.2 3.2 0.00 0.00 0.00 89 1007.8
20260509073201 20 66 1.6 1.6 0.00 0.00 0.00 90 1008.4
20260509072658 20 270 3.2 4.8 0.00 0.00 0.00 91 1008.6
20260509072155 20 334 1.6 1.6 0.00 0.00 0.00 91 1008.3
20260509071651 20 21 3.2 8.0 0.00 0.00 0.00 92 1008.7
20260509071148 20 353 1.6 3.2 0.00 0.00 0.00 91 1009.0
20260509070645 20 75 4.8 9.7 0.00 0.00 0.00 91 1009.2
20260509070142 20 345 1.6 1.6 0.00 0.00 0.00 91 1009.4
20260509065637 20 1 1.6 3.2 0.00 0.00 0.00 92 1009.7
20260509065133 20 0 1.6 1.6 0.00 0.00 0.00 91 1009.9
20260509064631 20 53 0.0 0.0 0.00 0.00 0.00 91 1010.2
20260509064129 20 26 0.0 0.0 0.00 0.00 0.00 91 1009.9
20260509063626 20 47 0.0 0.0 0.00 0.00 0.00 91 1010.0
20260509063122 20 52 0.0 0.0 0.00 0.00 0.00 91 1010.0
20260509062620 20 52 0.0 0.0 0.00 0.00 0.00 90 1010.4
20260509062116 20 52 0.0 0.0 0.00 0.00 0.00 90 1010.0
20260509061613 20 50 0.0 0.0 0.00 0.00 0.00 90 1010.1
20260509061111 20 49 0.0 0.0 0.00 0.00 0.00 89 1010.0
20260509060608 20 52 0.0 0.0 0.00 0.00 0.00 89 1010.2
20260509060104 21 50 0.0 0.0 0.00 0.00 0.00 89 1010.0
20260509055559 21 53 0.0 0.0 0.00 0.00 0.00 88 1009.9
20260509055055 21 50 0.0 0.0 0.00 0.00 0.00 88 1009.9
20260509054553 21 52 0.0 0.0 0.00 0.00 0.00 88 1009.6
20260509054050 21 53 0.0 0.0 0.00 0.00 0.00 88 1010.0
20260509053549 21 45 0.0 0.0 0.00 0.00 0.00 88 1009.7
20260509053045 21 57 1.6 1.6 0.00 0.00 0.00 87 1010.1
20260509052543 21 37 3.2 3.2 0.00 0.00 0.00 87 1010.2
20260509052041 21 47 0.0 1.6 0.00 0.00 0.00 87 1009.9
20260509051538 21 35 1.6 1.6 0.00 0.00 0.00 87 1009.9
20260509051035 21 54 1.6 3.2 0.00 0.00 0.00 88 1010.1
20260509050532 21 50 1.6 3.2 0.00 0.00 0.00 87 1010.1
20260509050028 21 54 0.0 0.0 0.00 0.00 0.00 87 1009.6
20260509045526 21 64 1.6 1.6 0.00 0.00 0.00 87 1009.0
20260509045023 21 57 0.0 0.0 0.00 0.00 0.00 86 1008.9
20260509044521 21 41 1.6 3.2 0.00 0.00 0.00 86 1009.0
20260509044018 21 249 4.8 4.8 0.00 0.00 0.00 86 1008.8
20260509043514 21 64 1.6 1.6 0.00 0.00 0.00 86 1008.8
20260509043010 21 249 3.2 3.2 0.00 0.00 0.00 86 1008.9
20260509042506 21 224 4.8 4.8 0.00 0.00 0.00 85 1008.7
20260509042002 21 214 3.2 3.2 0.00 0.00 0.00 85 1008.9
20260509041459 21 325 3.2 3.2 0.00 0.00 0.00 85 1008.6
20260509040957 21 97 1.6 1.6 0.00 0.00 0.00 85 1008.8
20260509040455 21 358 1.6 1.6 0.00 0.00 0.00 85 1008.9
20260509035951 22 23 1.6 3.2 0.00 0.00 0.00 84 1008.8
20260509035448 22 72 1.6 1.6 0.00 0.00 0.00 84 1008.8
20260509034945 22 93 1.6 1.6 0.00 0.00 0.00 84 1008.7
20260509034443 21 92 1.6 3.2 0.00 0.00 0.00 84 1009.0
20260509033940 22 58 0.0 0.0 0.00 0.00 0.00 84 1009.0
20260509033437 22 47 1.6 3.2 0.00 0.00 0.00 84 1008.8
20260509032933 22 88 3.2 3.2 0.00 0.00 0.00 84 1008.8
20260509032431 22 54 1.6 1.6 0.00 0.00 0.00 84 1008.7
20260509031928 22 54 1.6 1.6 0.00 0.00 0.00 83 1008.5
20260509031426 22 140 1.6 1.6 0.00 0.00 0.00 83 1008.0
20260509030923 22 236 3.2 3.2 0.00 0.00 0.00 83 1007.7
20260509030421 22 195 4.8 4.8 0.00 0.00 0.00 83 1007.5
20260509025918 22 84 3.2 3.2 0.00 0.00 0.00 83 1007.3
20260509025413 22 199 4.8 11.3 0.00 0.00 0.00 83 1007.4
20260509024908 22 52 1.6 1.6 0.00 0.00 0.00 83 1007.7
20260509024405 22 91 0.0 1.6 0.00 0.00 0.00 82 1007.5
20260509023902 22 25 3.2 4.8 0.00 0.00 0.00 82 1007.4
20260509023359 22 280 4.8 8.0 0.00 0.00 0.00 82 1007.0
20260509022855 22 114 4.8 8.0 0.00 0.00 0.00 82 1006.9
20260509022353 22 100 3.2 3.2 0.00 0.00 0.00 82 1006.9
20260509021850 22 90 1.6 1.6 0.00 0.00 0.00 81 1007.0
20260509021347 22 157 4.8 4.8 0.00 0.00 0.00 81 1006.8
20260509020845 22 195 4.8 8.0 0.00 0.00 0.00 80 1006.3
20260509020343 22 197 6.4 8.0 0.00 0.00 0.00 80 1006.6
20260509015840 22 242 4.8 8.0 0.00 0.00 0.00 80 1006.6
20260509015338 22 189 3.2 3.2 0.00 0.00 0.00 79 1006.9
20260509014834 22 359 1.6 1.6 0.00 0.00 0.00 79 1007.2
20260509014331 22 131 1.6 1.6 0.00 0.00 0.00 79 1007.4
20260509013828 22 58 1.6 1.6 0.00 0.00 0.00 79 1007.2
20260509013325 22 150 3.2 3.2 0.00 0.00 0.00 79 1007.3
20260509012820 22 87 1.6 1.6 0.00 0.00 0.00 79 1007.4
20260509012317 22 72 0.0 1.6 0.00 0.00 0.00 78 1007.3
20260509011815 22 10 1.6 1.6 0.00 0.00 0.00 78 1007.0
20260509011312 22 223 6.4 8.0 0.00 0.00 0.00 78 1007.0
20260509010809 22 34 3.2 4.8 0.00 0.00 0.00 78 1007.0
20260509010306 22 343 4.8 4.8 0.00 0.00 0.00 78 1006.9
20260509005804 22 21 1.6 1.6 0.00 0.00 0.00 78 1006.8
20260509005305 22 237 4.8 4.8 0.00 0.00 0.00 77 1006.8
20260509004801 22 159 4.8 4.8 0.00 0.00 0.00 77 1006.8
20260509004258 22 285 4.8 8.0 0.00 0.00 0.00 77 1006.7
20260509003756 22 247 3.2 3.2 0.00 0.00 0.00 77 1006.6
20260509003253 22 201 9.7 12.9 0.00 0.00 0.00 77 1006.7
20260509002750 22 216 8.0 11.3 0.00 0.00 0.00 77 1006.5
20260509002248 22 248 4.8 8.0 0.00 0.00 0.00 77 1006.7
20260509001746 22 291 3.2 3.2 0.00 0.00 0.00 77 1006.4
20260509001241 22 214 6.4 8.0 0.00 0.00 0.00 76 1006.5
20260509000739 22 58 1.6 1.6 0.00 0.00 0.00 77 1006.8
20260509000236 22 237 4.8 4.8 0.00 0.00 0.00 76 1006.8
20260508235733 22 219 4.8 4.8 0.00 0.00 0.00 76 1006.7
20260508235230 22 199 4.8 8.0 0.00 0.00 0.00 76 1006.7
20260508234728 23 199 3.2 4.8 0.00 0.00 0.00 76 1006.7
20260508234224 22 191 4.8 8.0 0.00 0.00 0.00 76 1006.8
20260508233723 23 321 8.0 9.7 0.00 0.00 0.00 75 1006.9
20260508233221 22 229 8.0 11.3 0.00 0.00 0.00 75 1006.7
20260508232718 23 207 4.8 4.8 0.00 0.00 0.00 75 1007.2
20260508232214 23 237 4.8 4.8 0.00 0.00 0.00 75 1007.3
20260508231712 23 229 4.8 8.0 0.00 0.00 0.00 74 1007.3
20260508231209 23 90 3.2 3.2 0.00 0.00 0.00 74 1007.2
20260508230706 22 157 3.2 3.2 0.00 0.00 0.00 74 1007.0
20260508230202 23 241 6.4 8.0 0.00 0.00 0.00 74 1007.0
20260508225700 23 215 9.7 12.9 0.00 0.00 0.00 73 1007.2
20260508225156 23 179 4.8 4.8 0.00 0.00 0.00 73 1006.9
20260508224654 23 190 4.8 4.8 0.00 0.00 0.00 73 1007.2
20260508224151 23 5 1.6 1.6 0.00 0.00 0.00 72 1007.2
20260508223648 23 90 3.2 4.8 0.00 0.00 0.00 71 1006.8
20260508223146 23 233 3.2 4.8 0.00 0.00 0.00 72 1007.0
20260508222643 23 187 4.8 8.0 0.00 0.00 0.00 72 1007.3
20260508222140 23 206 8.0 11.3 0.00 0.00 0.00 71 1007.3
20260508221636 23 315 3.2 4.8 0.00 0.00 0.00 71 1007.3
20260508221132 23 208 8.0 9.7 0.00 0.00 0.00 70 1006.8
20260508220629 23 225 11.3 12.9 0.00 0.00 0.00 71 1006.9
20260508220126 23 195 4.8 8.0 0.00 0.00 0.00 70 1006.8
20260508215622 23 247 4.8 4.8 0.00 0.00 0.00 70 1007.4
20260508215119 23 77 3.2 3.2 0.00 0.00 0.00 69 1007.3
20260508214616 23 76 3.2 3.2 0.00 0.00 0.00 69 1007.4
20260508214113 23 215 6.4 8.0 0.00 0.00 0.00 68 1007.3
20260508213609 23 208 6.4 8.0 0.00 0.00 0.00 67 1007.2
20260508213106 24 235 14.5 20.9 0.00 0.00 0.00 65 1007.6
20260508212602 23 26 1.6 3.2 0.00 0.00 0.00 66 1007.4
20260508212059 23 119 4.8 8.0 0.00 0.00 0.00 65 1007.5
20260508211554 23 245 9.7 9.7 0.00 0.00 0.00 65 1007.6
20260508211051 23 231 4.8 8.0 0.00 0.00 0.00 66 1007.8
20260508210547 23 206 4.8 4.8 0.00 0.00 0.00 64 1007.8
20260508210045 23 6 4.8 4.8 0.00 0.00 0.00 65 1007.9
20260508205542 23 221 8.0 11.3 0.00 0.00 0.00 64 1007.9
20260508205038 23 216 1.6 1.6 0.00 0.00 0.00 64 1008.1
20260508204535 23 211 4.8 4.8 0.00 0.00 0.00 65 1008.5
20260508204031 23 262 3.2 4.8 0.00 0.00 0.00 65 1008.5
20260508203527 23 89 3.2 4.8 0.00 0.00 0.00 64 1008.3
20260508203023 23 105 0.0 1.6 0.00 0.00 0.00 63 1008.2
20260508202520 23 133 4.8 4.8 0.00 0.00 0.00 64 1007.9